Ketchikan, AK

9:45 PM AKDT on September 20, 2018 (GMT -0800)
Ketchikan International

Weather History for PAKT - October, 2017

Change the Weather History Date:

Saturday, October 7, 2017

  Actual Average Record
Temperature  
Mean Temperature 48 °F -  
Max Temperature 55 °F 54 °F 64 °F (1964)
Min Temperature 42 °F 44 °F 32 °F (1959)
Degree Days  
Heating Degree Days 18    
Moisture  
Dew Point 45 °F    
Average Humidity 89    
Maximum Humidity 97    
Minimum Humidity 72    
Precipitation  
Precipitation 0.06 in - - ()
Sea Level Pressure  
Sea Level Pressure 29.86 in    
Wind  
Wind Speed 5 mph (WNW)    
Max Wind Speed 12 mph    
Max Gust Speed -    
Visibility 10 miles    
Events Rain    
Averages and records for this station are not official NWS values.
T = Trace of Precipitation, MM = Missing Value Source: NWS Daily Summary

Daily Weather History Graph

Daily Weather History Graph

Search for Another Location

Airport or City:

Astronomy

Oct. 07, 2017 Rise Set
Actual Time 7:02 AM AKDT 6:05 PM AKDT
Civil Twilight 6:25 AM AKDT 6:42 PM AKDT
Nautical Twilight 5:43 AM AKDT 7:24 PM AKDT
Astronomical Twilight 4:59 AM AKDT 8:07 PM AKDT
Moon 7:31 PM AKDT (10/7) 9:17 AM AKDT (10/7)
Length of Visible Light 12h 17m
Length of Day
11h 03m
Waning Gibbous, 94% of the Moon is Illuminated
Oct 7
Waning Gibbous
Oct 12
Last Quarter
Oct 19
New
Oct 27
First Quarter
Nov 3
Full

Hourly Weather History & Observations

Time (AKDT) Temp. Windchill Dew Point Humidity Pressure Visibility Wind Dir Wind Speed Gust Speed Precip Events Conditions
12:53 AM 46.9 °F - 45.0 °F 93% 29.65 in 10.0 mi South 3.5 mph - N/A   Overcast
1:13 AM 46.9 °F - 45.0 °F 93% 29.65 in 10.0 mi South 5.8 mph - N/A   Overcast
1:23 AM 46.9 °F - 46.0 °F 97% 29.65 in 10.0 mi South 5.8 mph - 0.00 in Rain Light Rain
1:53 AM 46.9 °F - 46.0 °F 97% 29.67 in 10.0 mi SSE 4.6 mph - 0.01 in Rain Light Rain
2:53 AM 46.9 °F - 46.0 °F 97% 29.68 in 10.0 mi SSE 4.6 mph - 0.04 in Rain Light Rain
3:53 AM 46.9 °F - 46.0 °F 97% 29.69 in 10.0 mi South 4.6 mph - 0.00 in Rain Light Rain
4:53 AM 46.9 °F - 46.0 °F 97% 29.70 in 10.0 mi Calm Calm - 0.01 in   Overcast
5:31 AM 46.9 °F - 45.0 °F 93% 29.70 in 10.0 mi Calm Calm - N/A   Mostly Cloudy
5:53 AM 46.0 °F 44.8 °F 45.0 °F 96% 29.71 in 10.0 mi South 3.5 mph - N/A   Mostly Cloudy
6:03 AM 46.0 °F - 45.0 °F 96% 29.71 in 10.0 mi Calm Calm - N/A   Mostly Cloudy
6:53 AM 46.0 °F 44.8 °F 45.0 °F 96% 29.73 in 10.0 mi WNW 3.5 mph - N/A   Mostly Cloudy
7:53 AM 46.9 °F - 46.0 °F 97% 29.75 in 10.0 mi WNW 4.6 mph - 0.00 in   Mostly Cloudy
8:53 AM 48.0 °F - 46.9 °F 96% 29.78 in 10.0 mi NW 5.8 mph - N/A   Mostly Cloudy
9:53 AM 50.0 °F - 46.9 °F 89% 29.81 in 10.0 mi North 8.1 mph - N/A   Mostly Cloudy
10:53 AM 51.8 °F - 44.6 °F 76% 29.84 in 10.0 mi NW 9.2 mph - N/A   Mostly Cloudy
11:53 AM 53.6 °F - 44.6 °F 72% 29.87 in 10.0 mi NW 11.5 mph - N/A   Mostly Cloudy
12:53 PM 53.6 °F - 44.6 °F 72% 29.89 in 10.0 mi NW 9.2 mph - N/A   Mostly Cloudy
1:53 PM 53.6 °F - 46.4 °F 77% 29.92 in 10.0 mi NNW 11.5 mph - N/A   Mostly Cloudy
2:53 PM 53.6 °F - 44.6 °F 72% 29.95 in 10.0 mi WNW 5.8 mph - N/A   Mostly Cloudy
3:53 PM 53.6 °F - 44.6 °F 72% 29.98 in 10.0 mi NNW 9.2 mph - N/A   Mostly Cloudy
4:53 PM 50.0 °F - 44.6 °F 82% 29.99 in 10.0 mi WNW 4.6 mph - N/A   Scattered Clouds
5:53 PM 51.8 °F - 44.6 °F 76% 30.01 in 10.0 mi WNW 6.9 mph - N/A   Mostly Cloudy
6:53 PM 48.0 °F - 44.1 °F 86% 30.04 in 10.0 mi WNW 4.6 mph - N/A   Scattered Clouds
7:53 PM 48.0 °F - 43.0 °F 83% 30.07 in 10.0 mi WNW 4.6 mph - N/A   Partly Cloudy
8:53 PM 44.1 °F 42.5 °F 42.1 °F 93% 30.10 in 10.0 mi West 3.5 mph - N/A   Clear
9:53 PM 42.1 °F 39.2 °F 41.0 °F 96% 30.12 in 10.0 mi WNW 4.6 mph - N/A   Partly Cloudy
10:53 PM 44.1 °F 40.8 °F 43.0 °F 96% 30.14 in 10.0 mi WNW 5.8 mph - N/A   Clear
11:53 PM 43.0 °F 40.3 °F 42.1 °F 97% 30.16 in 10.0 mi West 4.6 mph - N/A   Clear